timestamp,wind_dir_avg,wind_spd_avg,wind_spd_max_dir,wind_spd_gust,battery_voltage,lat,long
2022-09-03 00:04:00+00:00,229.0,4.0,232.0,4.72,12.41,47.59359,-54.27349
2022-09-03 00:14:00+00:00,235.0,3.84,246.0,5.14,12.49,47.59359,-54.27349
2022-09-03 00:24:00+00:00,219.0,1.97,233.0,2.76,12.49,47.59359,-54.27349
2022-09-03 00:34:00+00:00,226.0,2.96,251.0,5.27,12.49,47.59359,-54.27349
2022-09-03 00:44:00+00:00,241.0,4.62,247.0,6.03,12.49,47.59359,-54.27349
2022-09-03 00:54:00+00:00,247.0,3.98,252.0,4.91,12.49,47.59359,-54.27349
2022-09-03 01:04:00+00:00,315.0,0.01,254.0,0.0,12.49,47.59359,-54.27349
2022-09-03 01:14:01+00:00,259.0,5.56,263.0,5.93,12.41,47.59359,-54.27349
2022-09-03 01:24:01+00:00,253.0,3.37,258.0,5.25,12.41,47.59359,-54.27349
2022-09-03 01:34:01+00:00,239.0,4.64,247.0,5.92,12.41,47.59359,-54.27349
2022-09-03 01:44:01+00:00,205.0,1.43,199.0,1.81,12.41,47.59359,-54.27349
2022-09-03 01:54:01+00:00,251.0,4.13,255.0,5.9,12.41,47.59359,-54.27349
2022-09-03 02:04:01+00:00,245.0,4.43,254.0,5.99,12.41,47.59359,-54.27349
2022-09-03 02:14:01+00:00,239.0,5.04,244.0,5.9,12.41,47.59359,-54.27349
2022-09-03 02:24:01+00:00,212.0,3.52,224.0,4.1,12.41,47.59359,-54.27349
2022-09-03 02:34:01+00:00,219.0,2.74,237.0,4.22,12.41,47.59359,-54.27349
2022-09-03 02:44:01+00:00,246.0,4.03,253.0,5.86,12.41,47.59359,-54.27349
2022-09-03 02:54:01+00:00,213.0,1.42,212.0,1.57,12.41,47.59359,-54.27349
2022-09-03 03:04:01+00:00,255.0,3.12,262.0,4.94,12.41,47.59359,-54.27349
2022-09-03 03:14:01+00:00,265.0,1.37,272.0,1.99,12.41,47.59359,-54.27349
2022-09-03 03:24:01+00:00,297.0,0.99,303.0,1.08,12.41,47.59359,-54.27349
2022-09-03 03:34:01+00:00,334.0,0.83,326.0,1.0,12.41,47.59359,-54.27349
2022-09-03 03:44:01+00:00,294.0,1.0,304.0,1.4,12.41,47.59359,-54.27349
2022-09-03 03:54:01+00:00,285.0,3.02,285.0,3.39,12.41,47.59359,-54.27349
2022-09-03 04:04:01+00:00,279.0,2.5,275.0,3.4,12.41,47.59359,-54.27349
2022-09-03 04:14:00+00:00,284.0,2.45,282.0,3.43,12.41,47.59359,-54.27349
2022-09-03 04:24:00+00:00,271.0,2.27,272.0,3.35,12.41,47.59359,-54.27349
2022-09-03 04:34:00+00:00,256.0,1.82,262.0,2.56,12.41,47.59359,-54.27349
2022-09-03 04:44:00+00:00,264.0,2.52,268.0,3.32,12.41,47.59359,-54.27349
2022-09-03 04:54:00+00:00,259.0,2.59,261.0,4.23,12.41,47.59359,-54.27349
2022-09-03 05:04:00+00:00,277.0,2.43,277.0,3.14,12.41,47.59359,-54.27349
2022-09-03 05:14:00+00:00,303.0,2.89,300.0,3.31,12.41,47.59359,-54.27349
2022-09-03 05:24:00+00:00,319.0,1.78,325.0,2.11,12.41,47.59359,-54.27349
2022-09-03 05:34:00+00:00,321.0,3.01,313.0,3.65,12.41,47.59359,-54.27349
2022-09-03 05:44:00+00:00,314.0,2.93,307.0,3.33,12.41,47.59359,-54.27349
2022-09-03 05:54:00+00:00,323.0,3.07,322.0,3.44,12.41,47.59359,-54.27349
2022-09-03 06:04:00+00:00,322.0,2.32,327.0,2.65,12.41,47.59359,-54.27349
2022-09-03 06:14:00+00:00,332.0,4.23,329.0,4.67,12.33,47.59359,-54.27349
2022-09-03 06:24:00+00:00,330.0,4.94,331.0,5.4,12.33,47.59359,-54.27349
2022-09-03 06:34:00+00:00,329.0,6.25,330.0,6.83,12.33,47.59359,-54.27349
2022-09-03 06:44:00+00:00,337.0,5.36,340.0,5.76,12.33,47.59359,-54.27349
2022-09-03 06:54:00+00:00,349.0,5.42,350.0,6.21,12.33,47.59359,-54.27349
2022-09-03 07:04:00+00:00,351.0,5.75,353.0,6.33,12.33,47.59359,-54.27349
2022-09-03 07:14:00+00:00,348.0,5.38,351.0,5.95,12.33,47.59359,-54.27349
2022-09-03 07:24:00+00:00,353.0,4.99,354.0,5.58,12.33,47.59359,-54.27349
2022-09-03 07:34:00+00:00,355.0,4.23,356.0,4.87,12.33,47.59359,-54.27349
2022-09-03 07:44:00+00:00,351.0,3.54,350.0,3.85,12.33,47.59359,-54.27349
2022-09-03 07:54:00+00:00,348.0,3.25,346.0,3.51,12.33,47.59359,-54.27349
2022-09-03 08:04:00+00:00,1.0,2.89,0.0,3.43,12.33,47.59359,-54.27349
2022-09-03 08:14:01+00:00,17.0,4.5,21.0,5.26,12.33,47.59359,-54.27349
2022-09-03 08:24:01+00:00,21.0,5.12,19.0,5.99,12.33,47.59359,-54.27349
2022-09-03 08:34:01+00:00,3.0,3.55,3.0,5.15,12.33,47.59359,-54.27349
2022-09-03 08:44:01+00:00,19.0,4.38,29.0,5.04,12.33,47.59359,-54.27349
2022-09-03 08:54:01+00:00,5.0,4.27,2.0,4.89,12.33,47.59359,-54.27349
2022-09-03 09:04:01+00:00,6.0,3.88,7.0,4.33,12.33,47.59359,-54.27349
2022-09-03 09:14:00+00:00,359.0,3.93,358.0,4.52,12.25,47.59359,-54.27349
2022-09-03 09:24:00+00:00,358.0,3.96,356.0,4.6,12.25,47.59359,-54.27349
2022-09-03 09:34:00+00:00,4.0,5.21,3.0,6.58,12.25,47.59359,-54.27349
2022-09-03 09:44:00+00:00,5.0,4.56,3.0,5.25,12.25,47.59359,-54.27349
2022-09-03 09:54:00+00:00,3.0,4.46,0.0,4.98,12.25,47.59359,-54.27349
2022-09-03 10:04:00+00:00,3.0,5.01,0.0,6.1,12.25,47.59359,-54.27349
2022-09-03 10:14:00+00:00,2.0,5.2,3.0,5.68,13.29,47.59359,-54.27349
2022-09-03 10:24:00+00:00,4.0,5.42,1.0,6.18,13.29,47.59359,-54.27349
2022-09-03 10:34:00+00:00,8.0,4.82,3.0,5.48,13.29,47.59359,-54.27349
2022-09-03 10:44:00+00:00,22.0,4.13,24.0,4.59,13.29,47.59359,-54.27349
2022-09-03 10:54:00+00:00,31.0,3.97,33.0,4.63,13.29,47.59359,-54.27349
2022-09-03 11:04:00+00:00,24.0,4.16,20.0,4.94,13.29,47.59359,-54.27349
2022-09-03 11:14:01+00:00,35.0,4.26,40.0,4.99,13.76,47.59359,-54.27349
2022-09-03 11:24:01+00:00,24.0,4.57,31.0,5.12,13.76,47.59359,-54.27349
2022-09-03 11:34:01+00:00,30.0,5.26,40.0,5.91,13.76,47.59359,-54.27349
2022-09-03 11:44:01+00:00,30.0,5.04,35.0,5.73,13.76,47.59359,-54.27349
2022-09-03 11:54:01+00:00,37.0,5.62,37.0,6.47,13.76,47.59359,-54.27349
2022-09-03 12:04:01+00:00,30.0,5.21,39.0,6.03,13.76,47.59359,-54.27349
2022-09-03 12:14:00+00:00,34.0,5.59,31.0,6.06,14.24,47.59359,-54.27349
2022-09-03 12:24:00+00:00,39.0,5.02,42.0,5.67,14.24,47.59359,-54.27349
2022-09-03 12:34:00+00:00,48.0,4.88,44.0,5.81,14.24,47.59359,-54.27349
2022-09-03 12:44:00+00:00,39.0,4.49,48.0,5.37,14.24,47.59359,-54.27349
2022-09-03 12:54:00+00:00,44.0,4.99,48.0,5.66,14.24,47.59359,-54.27349
2022-09-03 13:04:00+00:00,39.0,4.94,43.0,5.64,14.24,47.59359,-54.27349
2022-09-03 13:14:00+00:00,32.0,4.79,36.0,5.1,13.76,47.59359,-54.27349
2022-09-03 13:24:00+00:00,39.0,4.24,35.0,4.71,13.76,47.59359,-54.27349
2022-09-03 13:34:00+00:00,41.0,3.82,42.0,4.46,13.76,47.59359,-54.27349
2022-09-03 13:44:00+00:00,44.0,3.95,44.0,4.62,13.76,47.59359,-54.27349
2022-09-03 13:54:00+00:00,53.0,4.42,53.0,5.03,13.76,47.59359,-54.27349
2022-09-03 14:04:00+00:00,52.0,4.6,51.0,5.15,13.76,47.59359,-54.27349
2022-09-03 14:14:00+00:00,57.0,4.64,55.0,5.19,14.4,47.59359,-54.27349
2022-09-03 14:24:00+00:00,57.0,6.1,60.0,7.23,14.4,47.59359,-54.27349
2022-09-03 14:34:00+00:00,47.0,6.09,47.0,6.56,14.4,47.59359,-54.27349
2022-09-03 14:44:00+00:00,52.0,4.95,51.0,5.45,14.4,47.59359,-54.27349
2022-09-03 14:54:00+00:00,54.0,4.52,54.0,5.01,14.4,47.59359,-54.27349
2022-09-03 15:04:00+00:00,54.0,3.44,53.0,3.97,14.4,47.59359,-54.27349
2022-09-03 15:14:00+00:00,52.0,4.04,53.0,4.49,13.6,47.59359,-54.27349
2022-09-03 15:24:00+00:00,54.0,3.81,47.0,4.5,13.6,47.59359,-54.27349
2022-09-03 15:34:00+00:00,55.0,4.91,55.0,5.4,13.6,47.59359,-54.27349
2022-09-03 15:44:00+00:00,65.0,4.12,70.0,4.81,13.6,47.59359,-54.27349
2022-09-03 15:54:00+00:00,66.0,3.72,65.0,4.23,13.6,47.59359,-54.27349
2022-09-03 16:04:00+00:00,64.0,4.13,64.0,4.55,13.6,47.59359,-54.27349
2022-09-03 16:14:00+00:00,71.0,4.09,71.0,4.72,13.84,47.59359,-54.27349
2022-09-03 16:24:00+00:00,70.0,3.72,62.0,5.01,13.84,47.59359,-54.27349
2022-09-03 16:34:00+00:00,69.0,3.67,62.0,4.41,13.84,47.59359,-54.27349
2022-09-03 16:44:00+00:00,67.0,3.82,64.0,4.45,13.84,47.59359,-54.27349
2022-09-03 16:54:00+00:00,70.0,3.54,77.0,5.53,13.84,47.59359,-54.27349
2022-09-03 17:04:00+00:00,65.0,4.45,70.0,5.72,13.84,47.59359,-54.27349
2022-09-03 17:14:00+00:00,68.0,3.1,72.0,3.53,14.32,47.59359,-54.27349
2022-09-03 17:24:00+00:00,106.0,1.57,97.0,2.87,14.32,47.59359,-54.27349
2022-09-03 17:34:00+00:00,78.0,1.89,74.0,2.92,14.32,47.59359,-54.27349
2022-09-03 17:44:00+00:00,103.0,1.59,91.0,2.37,14.32,47.59359,-54.27349
2022-09-03 17:54:00+00:00,56.0,1.68,51.0,1.92,14.32,47.59359,-54.27349
2022-09-03 18:04:00+00:00,49.0,1.55,45.0,1.89,14.32,47.59359,-54.27349
2022-09-03 18:14:00+00:00,47.0,1.31,42.0,1.63,14.0,47.59359,-54.27349
2022-09-03 18:24:00+00:00,79.0,1.9,77.0,2.37,14.0,47.59359,-54.27349
2022-09-03 18:34:00+00:00,71.0,1.57,73.0,2.1,14.0,47.59359,-54.27349
2022-09-03 18:44:00+00:00,64.0,1.52,55.0,2.01,14.0,47.59359,-54.27349
2022-09-03 18:54:00+00:00,112.0,0.84,96.0,1.22,14.0,47.59359,-54.27349
2022-09-03 19:04:00+00:00,39.0,1.35,42.0,1.67,14.0,47.59359,-54.27349
2022-09-03 19:14:00+00:00,47.0,1.4,41.0,1.67,13.84,47.59359,-54.27349
2022-09-03 19:24:00+00:00,31.0,1.41,30.0,1.54,13.84,47.59359,-54.27349
2022-09-03 19:34:00+00:00,15.0,1.07,20.0,1.22,13.84,47.59359,-54.27349
2022-09-03 19:44:00+00:00,342.0,0.96,318.0,1.25,13.84,47.59359,-54.27349
2022-09-03 19:54:00+00:00,358.0,0.99,3.0,1.1,13.84,47.59359,-54.27349
2022-09-03 20:04:00+00:00,30.0,1.41,35.0,1.56,13.84,47.59359,-54.27349
2022-09-03 20:14:00+00:00,23.0,1.25,21.0,1.46,13.53,47.59359,-54.27349
2022-09-03 20:24:00+00:00,0.0,1.19,9.0,1.35,13.53,47.59359,-54.27349
2022-09-03 20:34:00+00:00,1.0,1.22,0.0,1.44,13.53,47.59359,-54.27349
2022-09-03 20:44:00+00:00,4.0,1.07,6.0,1.14,13.53,47.59359,-54.27349
2022-09-03 20:54:00+00:00,344.0,0.45,326.0,0.74,13.53,47.59359,-54.27349
2022-09-03 21:04:00+00:00,27.0,0.55,23.0,1.02,13.53,47.59359,-54.27349
2022-09-03 21:14:01+00:00,64.0,1.29,73.0,1.73,13.21,47.59359,-54.27349
2022-09-03 21:24:01+00:00,79.0,1.39,83.0,2.29,13.21,47.59359,-54.27349
2022-09-03 21:34:01+00:00,109.0,2.66,111.0,3.89,13.21,47.59359,-54.27349
2022-09-03 21:44:01+00:00,73.0,2.15,61.0,3.65,13.21,47.59359,-54.27349
2022-09-03 21:54:01+00:00,76.0,2.59,83.0,4.0,13.21,47.59359,-54.27349
2022-09-03 22:04:01+00:00,72.0,3.59,68.0,4.53,13.21,47.59359,-54.27349
2022-09-03 22:14:01+00:00,74.0,3.65,69.0,4.44,12.81,47.59359,-54.27349
2022-09-03 22:24:01+00:00,72.0,3.98,74.0,5.24,12.81,47.59359,-54.27349
2022-09-03 22:34:01+00:00,82.0,3.0,92.0,4.06,12.81,47.59359,-54.27349
2022-09-03 22:44:01+00:00,85.0,2.66,84.0,3.97,12.81,47.59359,-54.27349
2022-09-03 22:54:01+00:00,86.0,2.17,88.0,3.17,12.81,47.59359,-54.27349
2022-09-03 23:04:01+00:00,89.0,2.54,82.0,3.8,12.81,47.59359,-54.27349
2022-09-03 23:14:00+00:00,85.0,2.48,82.0,4.12,12.49,47.59359,-54.27349
2022-09-03 23:24:00+00:00,99.0,2.22,97.0,3.1,12.49,47.59359,-54.27349
2022-09-03 23:34:00+00:00,81.0,1.3,81.0,1.73,12.49,47.59359,-54.27349
2022-09-03 23:44:00+00:00,80.0,1.33,85.0,1.64,12.49,47.59359,-54.27349
2022-09-03 23:54:00+00:00,64.0,2.03,51.0,2.63,12.49,47.59359,-54.27349
